Time,TemperatureF,DewpointF,PressureIn,WindDirection,WindDirectionDegrees,WindSpeedMPH,WindSpeedGustMPH,Humidity,HourlyPrecipIn,Conditions,Clouds,dailyrainin,SoftwareType,DateUTC
2013-01-22 00:02:00,44.0,3.0,30.00,NNE,23,0.0,3.0,18,0.00,,,0.00,,2013-01-22 07:02:00,
2013-01-22 00:11:00,44.0,3.0,30.00,NNE,23,0.0,3.0,18,0.00,,,0.00,,2013-01-22 07:11:00,
2013-01-22 00:22:00,44.0,3.0,30.00,NE,45,4.0,4.0,18,0.00,,,0.00,,2013-01-22 07:22:00,
2013-01-22 00:32:00,44.0,3.0,30.00,NE,45,3.0,4.0,18,0.00,,,0.00,,2013-01-22 07:32:00,
2013-01-22 00:42:00,44.0,3.0,30.00,NE,45,3.0,4.0,18,0.00,,,0.00,,2013-01-22 07:42:00,
2013-01-22 00:52:00,43.0,2.0,30.00,NNE,23,3.0,3.0,18,0.00,,,0.00,,2013-01-22 07:52:00,
2013-01-22 01:02:00,43.0,2.0,30.00,NNE,23,3.0,4.0,18,0.00,,,0.00,,2013-01-22 08:02:00,
2013-01-22 01:11:00,43.0,2.0,30.00,NNE,23,3.0,4.0,18,0.00,,,0.00,,2013-01-22 08:11:00,
2013-01-22 01:22:00,43.0,2.0,30.03,North,0,4.0,6.0,18,0.00,,,0.00,,2013-01-22 08:22:00,
2013-01-22 01:32:00,43.0,2.0,30.03,NE,45,4.0,8.0,18,0.00,,,0.00,,2013-01-22 08:32:00,
2013-01-22 01:52:00,42.0,2.0,30.03,NE,45,4.0,6.0,18,0.00,,,0.00,,2013-01-22 08:52:00,
2013-01-22 02:02:00,42.0,2.0,30.03,ESE,113,3.0,4.0,18,0.00,,,0.00,,2013-01-22 09:02:00,
2013-01-22 02:11:00,42.0,2.0,30.03,ESE,113,3.0,4.0,18,0.00,,,0.00,,2013-01-22 09:11:00,
2013-01-22 02:22:00,42.0,2.0,30.03,NNE,23,3.0,5.0,18,0.00,,,0.00,,2013-01-22 09:22:00,
2013-01-22 02:32:00,42.0,2.0,30.03,NE,45,3.0,6.0,18,0.00,,,0.00,,2013-01-22 09:32:00,
2013-01-22 02:42:00,42.0,2.0,30.03,NE,45,3.0,6.0,18,0.00,,,0.00,,2013-01-22 09:42:00,
2013-01-22 02:52:00,42.0,2.0,30.03,NNE,23,2.0,4.0,18,0.00,,,0.00,,2013-01-22 09:52:00,
2013-01-22 03:01:00,41.0,1.0,30.03,NE,45,3.0,4.0,18,0.00,,,0.00,,2013-01-22 10:01:00,
2013-01-22 03:22:00,40.0,0.0,30.03,NNE,23,3.0,4.0,18,0.00,,,0.00,,2013-01-22 10:22:00,
2013-01-22 03:32:00,40.0,0.0,30.03,ENE,68,1.0,3.0,18,0.00,,,0.00,,2013-01-22 10:32:00,
2013-01-22 03:52:00,40.0,0.0,30.03,South,180,1.0,2.0,18,0.00,,,0.00,,2013-01-22 10:52:00,
2013-01-22 04:02:00,39.0,0.0,30.03,SSW,203,0.0,0.0,19,0.00,,,0.00,,2013-01-22 11:02:00,
2013-01-22 04:22:00,38.0,-1.0,30.03,NNE,23,3.0,3.0,19,0.00,,,0.00,,2013-01-22 11:22:00,
2013-01-22 04:32:00,38.0,-1.0,30.06,WSW,248,1.0,2.0,19,0.00,,,0.00,,2013-01-22 11:32:00,
2013-01-22 04:53:00,38.0,-1.0,30.03,ENE,68,0.0,2.0,19,0.00,,,0.00,,2013-01-22 11:53:00,
2013-01-22 05:02:00,38.0,-1.0,30.06,NNE,23,2.0,3.0,19,0.00,,,0.00,,2013-01-22 12:02:00,
2013-01-22 05:22:00,38.0,-1.0,30.03,East,90,1.0,3.0,19,0.00,,,0.00,,2013-01-22 12:22:00,
2013-01-22 05:42:00,38.0,-1.0,30.03,NNW,338,0.0,3.0,19,0.00,,,0.00,,2013-01-22 12:42:00,
2013-01-22 05:52:00,37.0,-1.0,30.03,SE,135,1.0,3.0,19,0.00,,,0.00,,2013-01-22 12:52:00,
2013-01-22 06:03:00,37.0,2.0,30.03,ENE,68,1.0,2.0,22,0.00,,,0.00,,2013-01-22 13:03:00,
2013-01-22 06:11:00,37.0,2.0,30.03,ENE,68,1.0,2.0,22,0.00,,,0.00,,2013-01-22 13:11:00,
2013-01-22 06:22:00,37.0,2.0,30.06,SW,225,0.0,2.0,22,0.00,,,0.00,,2013-01-22 13:22:00,
2013-01-22 06:32:00,37.0,2.0,30.06,SSW,203,2.0,3.0,22,0.00,,,0.00,,2013-01-22 13:32:00,
2013-01-22 06:42:00,37.0,2.0,30.06,SSW,203,2.0,3.0,22,0.00,,,0.00,,2013-01-22 13:42:00,
2013-01-22 06:53:00,37.0,2.0,30.06,SSW,203,2.0,3.0,22,0.00,,,0.00,,2013-01-22 13:53:00,
2013-01-22 07:02:00,37.0,2.0,30.06,ESE,113,0.0,2.0,22,0.00,,,0.00,,2013-01-22 14:02:00,
2013-01-22 07:12:00,37.0,2.0,30.06,ESE,113,0.0,2.0,22,0.00,,,0.00,,2013-01-22 14:12:00,
2013-01-22 07:22:00,37.0,2.0,30.06,ENE,68,1.0,2.0,22,0.00,,,0.00,,2013-01-22 14:22:00,
2013-01-22 07:33:00,36.0,1.0,30.06,NE,45,3.0,3.0,22,0.00,,,0.00,,2013-01-22 14:33:00,
2013-01-22 07:53:00,36.0,1.0,30.06,South,180,1.0,3.0,22,0.00,,,0.00,,2013-01-22 14:53:00,
2013-01-22 08:02:00,36.0,1.0,30.06,ENE,68,0.0,1.0,22,0.00,,,0.00,,2013-01-22 15:02:00,
2013-01-22 08:12:00,36.0,1.0,30.06,ENE,68,0.0,1.0,22,0.00,,,0.00,,2013-01-22 15:12:00,
2013-01-22 08:22:00,36.0,1.0,30.06,South,180,1.0,2.0,22,0.00,,,0.00,,2013-01-22 15:22:00,
2013-01-22 08:33:00,36.0,1.0,30.06,NNW,338,0.0,1.0,22,0.00,,,0.00,,2013-01-22 15:33:00,
2013-01-22 08:53:00,46.0,6.0,30.06,SSW,203,1.0,2.0,19,0.00,,,0.00,,2013-01-22 15:53:00,
2013-01-22 09:02:00,44.0,6.0,30.06,SE,135,2.0,3.0,20,0.00,,,0.00,,2013-01-22 16:02:00,
2013-01-22 09:22:00,47.0,7.0,30.03,NNE,23,2.0,3.0,19,0.00,,,0.00,,2013-01-22 16:22:00,
2013-01-22 09:32:00,50.0,9.0,30.06,East,90,2.0,2.0,19,0.00,,,0.00,,2013-01-22 16:32:00,
2013-01-22 09:53:00,53.0,11.0,30.03,NE,45,2.0,4.0,18,0.00,,,0.00,,2013-01-22 16:53:00,
2013-01-22 10:02:00,56.0,12.0,30.03,SW,225,2.0,3.0,17,0.00,,,0.00,,2013-01-22 17:02:00,
2013-01-22 10:22:00,59.0,10.0,30.06,South,180,2.0,3.0,14,0.00,,,0.00,,2013-01-22 17:22:00,
2013-01-22 10:32:00,61.0,11.0,30.06,East,90,0.0,2.0,14,0.00,,,0.00,,2013-01-22 17:32:00,
2013-01-22 10:53:00,62.0,12.0,30.06,West,270,4.0,6.0,14,0.00,,,0.00,,2013-01-22 17:53:00,
2013-01-22 11:02:00,63.0,11.0,30.06,West,270,3.0,6.0,13,0.00,,,0.00,,2013-01-22 18:02:00,
2013-01-22 11:33:00,65.0,13.0,30.06,WSW,248,3.0,3.0,13,0.00,,,0.00,,2013-01-22 18:33:00,
2013-01-22 11:53:00,67.0,13.0,30.06,SE,135,1.0,3.0,12,0.00,,,0.00,,2013-01-22 18:53:00,
2013-01-22 12:02:00,68.0,14.0,30.03,NE,45,3.0,6.0,12,0.00,,,0.00,,2013-01-22 19:02:00,
2013-01-22 12:22:00,68.0,14.0,30.06,SW,225,3.0,7.0,12,0.00,,,0.00,,2013-01-22 19:22:00,
2013-01-22 12:32:00,68.0,14.0,30.06,WSW,248,4.0,5.0,12,0.00,,,0.00,,2013-01-22 19:32:00,
2013-01-22 12:53:00,69.0,14.0,30.03,WSW,248,4.0,6.0,12,0.00,,,0.00,,2013-01-22 19:53:00,
2013-01-22 13:02:00,70.0,15.0,30.03,WSW,248,4.0,6.0,12,0.00,,,0.00,,2013-01-22 20:02:00,
2013-01-22 13:22:00,70.0,15.0,30.03,NW,315,3.0,4.0,12,0.00,,,0.00,,2013-01-22 20:22:00,
2013-01-22 13:32:00,71.0,16.0,30.00,North,0,4.0,5.0,12,0.00,,,0.00,,2013-01-22 20:32:00,
2013-01-22 13:53:00,71.0,16.0,30.00,NW,315,3.0,6.0,12,0.00,,,0.00,,2013-01-22 20:53:00,
2013-01-22 14:02:00,71.0,16.0,29.96,West,270,4.0,5.0,12,0.00,,,0.00,,2013-01-22 21:02:00,
2013-01-22 14:22:00,72.0,15.0,30.00,NNW,338,3.0,8.0,11,0.00,,,0.00,,2013-01-22 21:22:00,
2013-01-22 14:33:00,72.0,15.0,30.00,SW,225,1.0,6.0,11,0.00,,,0.00,,2013-01-22 21:33:00,
2013-01-22 14:53:00,73.0,15.0,30.00,WNW,293,3.0,4.0,11,0.00,,,0.00,,2013-01-22 21:53:00,
2013-01-22 15:02:00,74.0,16.0,30.00,NNW,338,4.0,5.0,11,0.00,,,0.00,,2013-01-22 22:02:00,
2013-01-22 15:22:00,74.0,16.0,30.00,West,270,2.0,5.0,11,0.00,,,0.00,,2013-01-22 22:22:00,
2013-01-22 15:42:00,74.0,16.0,30.00,North,0,4.0,5.0,11,0.00,,,0.00,,2013-01-22 22:42:00,
2013-01-22 15:53:00,74.0,16.0,30.00,East,90,1.0,5.0,11,0.00,,,0.00,,2013-01-22 22:53:00,
2013-01-22 16:02:00,73.0,15.0,30.00,East,90,0.0,5.0,11,0.00,,,0.00,,2013-01-22 23:02:00,
2013-01-22 16:12:00,73.0,15.0,30.00,East,90,0.0,5.0,11,0.00,,,0.00,,2013-01-22 23:12:00,
2013-01-22 16:22:00,72.0,15.0,30.00,SW,225,2.0,3.0,11,0.00,,,0.00,,2013-01-22 23:22:00,
2013-01-22 16:32:00,70.0,15.0,30.00,NE,45,0.0,3.0,12,0.00,,,0.00,,2013-01-22 23:32:00,
2013-01-22 16:42:00,70.0,15.0,30.00,NE,45,0.0,3.0,12,0.00,,,0.00,,2013-01-22 23:42:00,
2013-01-22 16:53:00,69.0,14.0,30.00,North,0,0.0,2.0,12,0.00,,,0.00,,2013-01-22 23:53:00,
2013-01-22 17:02:00,67.0,13.0,30.00,West,270,0.0,2.0,12,0.00,,,0.00,,2013-01-23 00:02:00,
2013-01-22 17:12:00,67.0,13.0,30.00,West,270,0.0,2.0,12,0.00,,,0.00,,2013-01-23 00:12:00,
2013-01-22 17:22:00,65.0,13.0,30.00,SSW,203,0.0,2.0,13,0.00,,,0.00,,2013-01-23 00:22:00,
2013-01-22 17:32:00,64.0,12.0,30.00,WSW,248,2.0,2.0,13,0.00,,,0.00,,2013-01-23 00:32:00,
2013-01-22 17:42:00,64.0,12.0,30.00,WSW,248,2.0,2.0,13,0.00,,,0.00,,2013-01-23 00:42:00,
2013-01-22 17:52:00,62.0,12.0,30.00,West,270,4.0,4.0,14,0.00,,,0.00,,2013-01-23 00:52:00,
2013-01-22 18:02:00,61.0,11.0,30.00,WNW,293,4.0,4.0,14,0.00,,,0.00,,2013-01-23 01:02:00,
2013-01-22 18:12:00,61.0,11.0,30.00,WNW,293,4.0,4.0,14,0.00,,,0.00,,2013-01-23 01:12:00,
2013-01-22 18:22:00,59.0,10.0,30.00,North,0,2.0,4.0,14,0.00,,,0.00,,2013-01-23 01:22:00,
2013-01-22 18:32:00,57.0,10.0,29.96,NE,45,0.0,2.0,15,0.00,,,0.00,,2013-01-23 01:32:00,
2013-01-22 18:42:00,57.0,10.0,29.96,NE,45,0.0,2.0,15,0.00,,,0.00,,2013-01-23 01:42:00,
2013-01-22 18:53:00,55.0,8.0,30.00,NE,45,2.0,4.0,15,0.00,,,0.00,,2013-01-23 01:53:00,
2013-01-22 19:02:00,54.0,7.0,30.00,East,90,1.0,3.0,15,0.00,,,0.00,,2013-01-23 02:02:00,
2013-01-22 19:12:00,54.0,7.0,30.00,East,90,1.0,3.0,15,0.00,,,0.00,,2013-01-23 02:12:00,
2013-01-22 19:22:00,53.0,8.0,30.00,North,0,3.0,3.0,16,0.00,,,0.00,,2013-01-23 02:22:00,
2013-01-22 19:53:00,51.0,6.0,30.00,North,0,2.0,3.0,16,0.00,,,0.00,,2013-01-23 02:53:00,
2013-01-22 20:22:00,50.0,6.0,30.00,NNW,338,2.0,3.0,16,0.00,,,0.00,,2013-01-23 03:22:00,
2013-01-22 20:32:00,49.0,5.0,30.00,ENE,68,1.0,3.0,16,0.00,,,0.00,,2013-01-23 03:32:00,
2013-01-22 20:53:00,49.0,5.0,30.03,NNE,23,2.0,3.0,16,0.00,,,0.00,,2013-01-23 03:53:00,
2013-01-22 21:02:00,48.0,5.0,30.03,North,0,2.0,3.0,17,0.00,,,0.00,,2013-01-23 04:02:00,
2013-01-22 21:22:00,47.0,4.0,30.03,NNE,23,3.0,3.0,17,0.00,,,0.00,,2013-01-23 04:22:00,
2013-01-22 21:32:00,47.0,4.0,30.03,NNE,23,2.0,3.0,17,0.00,,,0.00,,2013-01-23 04:32:00,
2013-01-22 21:52:00,46.0,6.0,30.03,NNE,23,2.0,3.0,19,0.00,,,0.00,,2013-01-23 04:52:00,
2013-01-22 22:03:00,46.0,7.0,30.03,ENE,68,2.0,3.0,20,0.00,,,0.00,,2013-01-23 05:03:00,
2013-01-22 22:22:00,46.0,7.0,30.03,ENE,68,2.0,2.0,20,0.00,,,0.00,,2013-01-23 05:22:00,
2013-01-22 22:32:00,45.0,6.0,30.06,ENE,68,3.0,4.0,20,0.00,,,0.00,,2013-01-23 05:32:00,
2013-01-22 22:52:00,44.0,6.0,30.06,East,90,4.0,6.0,20,0.00,,,0.00,,2013-01-23 05:52:00,
2013-01-22 23:02:00,44.0,6.0,30.03,NE,45,5.0,6.0,20,0.00,,,0.00,,2013-01-23 06:02:00,
2013-01-22 23:22:00,44.0,6.0,30.03,East,90,3.0,4.0,20,0.00,,,0.00,,2013-01-23 06:22:00,
2013-01-22 23:32:00,44.0,6.0,30.03,NNW,338,1.0,2.0,20,0.00,,,0.00,,2013-01-23 06:32:00,
2013-01-22 23:52:00,44.0,6.0,30.03,ESE,113,2.0,3.0,20,0.00,,,0.00,,2013-01-23 06:52:00,